Location: Alzon
(43.9667°N, 3.4398°E)
Time: 06:58:27
(UTC+00:00)

Daily predictions for brighter satellites

Satellite Brightness Start Highest point End
(mag) Time Altitude Azimuth Time Altitude Azimuth Time Altitude Azimuth
Meteor 1-21 4.4 18:08:57 10° N 18:14:24 51° ENE 18:19:49 10° SSE
Helios 1A Rocket 3.5 18:10:26 10° S 18:14:30 66° WSW 18:18:37 10° NNW
MOS 1 Rocket 4.0 18:11:44 10° NE 18:15:29 26° E 18:19:08 10° SSE
CSL-04 Rocket 3.9 18:10:40 10° SE 18:15:52 50° ENE 18:21:09 10° N
Cosmos 1603 3.7 18:10:20 10° NNW 18:16:01 72° ENE 18:21:37 10° SSE
SJ 16-02 2.4 18:13:37 10° SW 18:17:53 52° WNW 18:22:11 10° N
Cosmos 1378 Rocket 4.3 18:16:06 10° NNW 18:20:21 57° W 18:24:33 10° S
Cosmos 2112 Rocket 4.1 18:16:06 10° NNW 18:21:20 87° WSW 18:26:34 10° SSE
Cosmos 1937 Rocket 3.5 18:16:25 10° S 18:21:36 62° ESE 18:26:46 10° NNE
NOSS 8 (H) 4.1 18:19:03 10° SW 18:22:19 89° SSE 18:25:21 10° NE
Cosmos 1680 Rocket 3.9 18:19:37 10° NNW 18:24:50 70° WSW 18:30:02 10° S
Abrixas rocket 2.9 18:25:58 10° W 18:28:40 39° NNW 18:31:22 10° ENE
Okean 2 Rocket 4.1 18:25:07 10° SE 18:28:51 26° E 18:32:36 10° NNE
Cosmos 1464 Rocket 4.5 18:24:55 10° SSE 18:30:26 37° E 18:36:00 10° NNE
NOSS 2-2 (E) 3.1 18:27:15 10° SSW 18:30:39 56° ESE 18:34:23 10° NE
Cosmos 1544 4.2 18:30:33 10° SSW 18:34:05 48° W 18:37:40 10° N
Okean-O 3.4 18:30:51 10° S 18:35:12 56° W 18:39:34 10° NNW
USA 116 3.4 18:32:35 10° NNE 18:36:04 78° ESE 18:39:57 10° S
ATLAS 2AS CENTAUR R/B 4.4 18:33:19 10° SE 18:36:27 13° ESE 18:39:37 10° ENE
Okean 2 3.6 18:32:32 10° N 18:36:44 79° W 18:40:52 10° S
Cosmos 1300 Rocket 4.3 18:33:35 10° SSE 18:37:25 31° E 18:41:19 10° NNE
CZ-2C R/B 2.8 18:35:13 10° SW 18:37:46 18° S 18:39:59 11° SE
NOSS 2-2 (D) 3.1 18:35:56 10° SSW 18:39:20 53° ESE 18:43:00 10° NE
Iridium 4 Rocket 3.9 18:38:37 10° S 18:43:29 69° W 18:48:52 10° N
YAOGAN 1 3.1 18:40:16 10° S 18:44:32 61° WSW 18:48:51 10° NNW
Cosmos 1975 3.5 18:41:07 10° SSW 18:45:08 60° W 18:49:11 10° N
CENTAUR R/B 4.0 18:38:24 10° NNW 18:45:30 35° NE 18:51:59 14° E
H-2A R/B 1.9 18:43:44 10° SSE 18:48:40 77° ENE 18:53:44 10° N
SJ-11-01 4.3 18:44:33 10° SSE 18:49:16 85° E 18:54:00 10° NNW
CZ-4 R/B 2.8 18:45:57 10° S 18:49:58 43° W 18:53:59 10° NNW
Cosmos 1437 3.3 18:48:21 10° NNW 18:51:18 55° W 18:54:13 10° S
Cosmos 1674 4.3 18:49:06 10° NNE 18:51:42 17° ENE 18:52:10 17° E
ATLAS 3B R/B 4.5 18:47:17 10° NNW 18:51:43 18° NNE 18:56:13 10° ENE
ISS -3.8 18:50:17 10° SW 18:53:38 68° SE 18:56:09 16° ENE
Cosmos 1536 Rocket 4.3 18:52:20 10° N 18:56:22 33° ENE 18:58:58 18° SE
Cosmos 1842 4.4 18:53:19 10° NNW 18:57:02 46° W 19:00:44 10° SSW
USA 238 DEB 4.3 18:50:23 10° NNW 18:57:16 46° NE 19:02:30 18° ESE
USA 238 4.3 18:50:29 10° NNW 18:57:22 46° NE 19:02:35 18° ESE
Cosmos 1891 Rocket 4.4 18:51:44 10° S 18:57:47 64° E 19:03:47 10° NNE
In-Cosmos 22 4.2 18:53:50 10° N 18:58:59 51° ENE 19:04:11 10° SSE
ARGOS 3.1 18:56:50 10° SSE 19:02:11 78° ENE 19:07:34 10° N
Cosmos 1025 Rocket 3.1 19:02:07 10° N 19:06:26 54° ENE 19:10:02 14° SSE
CZ-2C R/B 3.0 19:01:35 10° NNE 19:06:54 46° E 19:12:15 10° S
Cosmos 1707 2.6 19:05:50 10° N 19:09:41 86° E 19:13:31 10° S
Cosmos 2151 Rocket 3.7 19:05:53 10° SSE 19:10:10 50° E 19:14:31 10° NNE
USA 186 1.6 19:13:02 32° SSE 19:14:17 65° ENE 19:17:29 10° N
Ariane Rocket 3.0 19:12:56 15° SSE 19:17:09 65° ENE 19:22:11 10° N
SJ-6B 2.8 19:16:15 33° SE 19:17:34 50° ENE 19:21:13 10° N
CZ-2C R/B 4.2 19:13:19 10° S 19:18:18 46° W 19:23:34 10° NNW
Cosmos 1844 4.0 19:13:58 10° S 19:19:14 40° ESE 19:24:30 10° NE
FREGAT/IRIS 3.4 19:20:39 32° NNE 19:20:39 32° NNE 19:22:21 10° N
Cosmos 2263 Rocket 3.7 19:16:15 10° WSW 19:21:21 37° NW 19:26:32 10° NNE
NOSS 2-2 (C) 4.0 19:20:32 10° SW 19:23:57 50° NW 19:27:44 10° NNE
Nadezhda 4 Rocket 3.9 19:17:58 10° N 19:24:03 66° E 19:29:17 14° SSE
NOSS 3-2 (A) 4.1 19:17:40 10° NNW 19:25:09 68° NE 19:30:19 26° SE
MOS 1 4.2 19:21:25 17° SSE 19:25:50 69° ENE 19:31:31 10° N
Cosmos 2034 Rocket 3.9 19:21:33 10° S 19:27:53 74° E 19:34:15 10° NNE
Cosmos 1844 Rocket 2.6 19:22:27 10° S 19:27:54 59° ESE 19:33:23 10° NNE
USA 102 3.8 19:24:07 22° SSE 19:28:28 74° WSW 19:29:59 29° NW
Cosmos 2298 Rocket 3.9 19:25:01 10° SSW 19:30:20 82° ESE 19:35:41 10° NNE
SPOT 3 Rocket 3.9 19:32:57 37° ESE 19:34:09 43° ENE 19:39:01 10° N
Resurs 01 Rocket 2.4 19:42:54 34° NE 19:42:54 34° NE 19:46:31 10° N
USA 234 3.2 19:37:54 10° NE 19:44:22 59° SE 19:50:47 10° SSW
Cosmos 1867 4.3 19:40:24 10° NW 19:45:39 48° WSW 19:49:02 21° S
MetOp-A 4.1 19:42:59 26° SSE 19:46:08 90° SW 19:51:32 10° NNW
Lacrosse 5 rocket 4.0 19:43:45 10° NW 19:46:25 16° N 19:49:08 10° NNE
Cosmos 1833 Rocket 4.2 19:46:56 10° N 19:51:10 21° NE 19:51:25 21° NE
OBJECT-B 2.0 19:52:33 36° N 19:52:33 36° N 19:54:36 10° N
Meteor 1-15 Rocket 4.1 19:46:46 10° S 19:52:22 86° E 19:58:06 10° NNE
Cosmos 1626 4.0 19:54:38 10° N 19:56:03 20° NNE 19:56:03 20° NNE
ARIANE 5 R/B 4.1 20:01:02 24° NNE 20:01:02 24° NNE 20:03:18 10° N
NOSS 3-2 (C) 4.0 19:52:27 10° NW 20:00:00 71° NE 20:03:03 42° ESE
Cosmos 1634 Rocket 3.9 19:59:03 47° SE 20:00:32 59° E 20:06:36 10° NNE
DMSP B5D2-2 4.3 19:55:16 10° N 20:00:34 73° WNW 20:05:49 10° SSW
BREEZE-M TANK 2.7 19:56:13 10° WSW 20:04:16 89° N 20:04:38 74° ENE
Abrixas rocket 4.4 20:01:41 10° WNW 20:03:00 21° NW 20:03:00 21° NW
Cosmos 2285 Rocket 3.9 20:01:29 10° SSW 20:07:47 86° ESE 20:14:10 10° NNE
Cosmos 1125 Rocket 3.6 20:02:35 10° SSW 20:07:53 78° WNW 20:13:14 10° NNE
Okean 1 Rocket 3.0 20:08:19 84° WNW 20:08:19 84° WNW 20:12:49 10° N
Cosmos 1627 Rocket 4.4 20:11:50 10° N 20:18:17 85° E 20:19:39 58° SSE
Resurs 1-3 3.9 20:18:55 63° W 20:18:55 63° W 20:23:11 10° NNW
Cosmos 1092 Rocket 4.1 20:17:25 10° NNW 20:23:33 72° W 20:25:37 43° SSW
Meteor 2-5 Rocket 3.7 20:19:06 10° NNW 20:24:46 79° W 20:25:27 68° SSW
ATLAS 2AS CENTAUR R/B 2.9 20:18:15 10° SSW 20:26:03 64° ESE 20:33:51 10° NE
Cosmos 1674 4.3 20:23:49 10° NNW 20:27:00 33° W 20:27:00 33° W
Cosmos 2026 Rocket 4.0 20:23:26 10° N 20:29:49 84° W 20:30:53 64° S
ISS -1.1 20:27:39 10° W 20:29:08 20° WNW 20:29:08 20° WNW
Cosmos 2082 Rocket 3.7 20:28:46 10° N 20:32:16 24° NNE 20:32:16 24° NNE
Meteor 1-22 Rocket 4.2 20:34:25 84° SW 20:34:34 86° W 20:40:38 10° N
CENTAUR R/B 3.2 20:28:54 10° NW 20:37:06 82° SW 20:39:10 58° SSE
Cosmos 2279 Rocket 4.2 20:44:35 62° NNE 20:44:35 62° NNE 20:49:46 10° N
ATLAS 3B R/B 3.1 20:37:33 10° NNW 20:44:10 48° NE 20:44:10 48° NE
COSMOS 2406 3.7 20:38:43 10° NNW 20:43:09 50° N 20:43:09 50° N
Cosmos 2142 Rocket 4.4 20:47:06 82° NNW 20:47:06 82° NNW 20:53:07 10° N
Meteor 1-24 Rocket 4.0 20:42:01 10° NNW 20:47:08 65° WNW 20:47:08 65° WNW
USA 238 DEB 4.5 20:41:25 10° NW 20:48:20 49° WSW 20:49:58 42° SSW
USA 238 4.4 20:41:31 10° NW 20:48:27 49° WSW 20:50:02 43° SSW
Terra 4.1 21:02:36 16° NNE 21:02:36 16° NNE 21:03:45 10° N
Lacrosse 4 Rocket 4.3 21:06:14 10° N 21:06:37 12° N 21:06:37 12° N
Resurs 01 Rocket 4.0 21:20:28 20° WNW 21:20:28 20° WNW 21:22:37 10° NW
Lacrosse 5 rocket 4.3 21:23:47 10° NNW 21:25:05 15° NNW 21:25:05 15° NNW
USA 234 3.9 21:24:44 34° NNE 21:27:18 51° NNW 21:33:35 10° WSW
Cosmos 1833 Rocket 4.2 21:30:01 10° NNW 21:33:07 33° NW 21:33:07 33° NW
ATLAS 2AS CENTAUR R/B 4.1 22:10:06 10° WSW 22:17:30 40° NW 22:24:48 10° NNE
Cosmos 2082 Rocket 4.4 22:12:20 10° NNW 22:14:06 21° NW 22:14:06 21° NW
ATLAS 3B R/B 4.4 22:28:24 10° NW 22:31:25 26° WNW 22:31:25 26° WNW
